Theta_e
335 337 334 334 333 335 336 334 329 321 320 330 332 335 334 335 335 331 331 333 332 330 328 329 330 332 334 336 337 338 338 339 340 339 340 341 342 342
337 335 334 333 333 335 335 337 335 330 324 329 329 329 329 328 330 326 327 327 327 326 325 324 325 327 329 330 332 333 334 335 336 336 337 337 338 340
333 334 335 336 335 335 336 335 335 334 328 329 328 326 323 322 322 323 323 322 323 324 323 322 321 321 322 323 325 327 329 330 331 332 332 333 335 335
325 330 330 333 331 332 333 333 332 333 331 326 324 321 320 320 319 319 320 321 320 323 321 320 319 319 318 318 318 317 318 321 323 324 327 329 331 331
321 324 327 330 329 330 328 328 327 327 327 328 322 322 320 320 317 317 317 316 318 321 320 320 319 318 317 316 314 312 311 312 314 316 318 320 323 325
319 320 323 325 326 327 327 327 325 323 326 325 323 322 321 319 318 313 312 314 312 314 315 315 316 317 316 315 314 312 310 309 310 311 312 312 314 318
316 319 320 323 323 324 322 324 323 319 320 320 319 319 319 317 315 314 311 311 312 312 310 310 309 309 310 311 311 312 311 311 310 310 310 309 310 312
315 315 316 316 315 319 321 324 322 316 314 316 317 316 317 315 314 312 310 309 308 314 310 307 308 306 307 307 311 310 310 310 311 310 309 309 309 309
312 311 313 313 310 306 311 312 316 320 321 321 317 317 318 318 316 313 313 312 309 311 310 307 310 306 306 308 310 309 309 309 309 309 308 308 307 306
312 310 309 309 309 304 301 300 301 306 310 311 310 310 315 318 318 317 309 307 312 312 314 306 309 307 303 302 309 309 308 308 308 308 307 306 304 304
307 307 306 307 312 311 304 303 302 301 308 311 311 312 313 314 315 314 308 310 307 310 310 307 307 307 308 307 303 308 308 307 307 307 306 305 303 303
303 302 309 305 307 309 306 305 305 303 304 304 304 305 306 307 311 308 307 306 311 308 307 301 305 305 299 306 307 303 300 306 306 305 305 304 302 299
304 301 299 304 301 301 303 302 300 298 300 302 303 300 299 301 303 302 301 305 303 302 305 305 300 299 299 300 300 301 299 299 299 300 303 302 302 300
304 303 300 299 298 299 298 301 302 301 298 299 298 297 297 297 300 303 302 302 301 302 302 303 302 302 300 298 298 301 301 301 299 298 298 301 302 303
303 302 301 299 298 299 302 301 300 297 296 295 294 293 293 295 299 302 303 301 300 302 306 303 301 300 300 300 300 302 301 302 301 300 301 300 300 298
301 299 303 301 301 301 299 298 297 297 295 294 293 294 295 294 293 295 298 300 299 300 301 302 300 297 296 296 297 298 302 301 303 303 302 302 303 303
303 298 296 296 295 296 298 296 295 295 295 293 292 293 292 292 292 294 293 294 298 297 298 299 300 300 297 296 294 294 297 298 301 302 300 297 296 300
297 295 295 298 297 297 297 295 294 295 294 293 292 291 292 290 290 291 293 292 294 295 299 300 299 298 299 299 299 293 293 297 299 298 295 293 293 298
293 295 295 295 294 295 295 294 293 292 292 294 292 292 293 293 293 293 293 293 292 294 296 295 294 295 294 294 296 301 292 291 292 294 296 294 292 295
291 292 296 295 295 296 296 295 294 293 295 293 293 294 293 294 293 293 293 290 289 290 290 295 294 293 293 294 294 294 299 292 292 291 291 292 295 301
296 296 297 297 295 296 295 294 294 294 293 292 292 292 292 293 292 292 293 295 293 289 289 291 296 301 292 292 289 290 294 300 296 292 290 290 289 290
296 296 297 297 297 297 296 294 295 295 294 293 293 293 292 293 293 292 292 292 291 290 290 292 295 293 292 291 290 291 292 294 298 303 301 298 290 287
296 296 297 298 298 297 296 296 295 295 294 294 295 295 294 294 294 293 293 293 292 292 291 291 293 293 293 293 293 291 292 293 292 291 292 301 302 302
Wind_Speed
4 4 3 3 3 4 4 5 3 2 2 1 2 4 5 6 7 6 6 10 12 13 15 15 15 15 13 11 10 8 6 4 5 6 6 6 6 7
4 5 4 3 3 3 3 4 3 3 3 2 2 3 5 5 8 6 7 12 15 15 16 16 16 16 17 17 16 14 12 13 12 11 9 9 9 8
7 7 8 6 3 3 3 3 4 4 4 3 3 3 4 5 5 5 6 6 8 17 18 17 17 17 17 17 17 16 15 16 16 16 15 15 14 20
7 8 8 5 8 5 4 5 3 3 4 8 3 2 3 4 4 5 5 6 7 16 19 19 19 19 19 18 18 18 17 17 19 19 18 18 18 19
7 7 7 8 7 5 4 4 3 3 4 6 4 2 2 2 4 4 5 6 5 12 15 18 17 18 17 17 17 17 16 16 16 16 17 17 18 20
7 7 7 8 7 6 5 5 4 5 6 6 5 4 3 3 3 3 3 4 4 5 10 12 13 17 17 16 15 15 14 14 14 15 14 15 16 18
7 9 9 14 18 12 4 5 5 4 4 5 3 2 2 3 2 2 2 3 3 2 3 5 5 6 7 11 12 14 14 14 13 13 13 13 14 15
6 6 6 10 11 15 16 15 6 5 4 3 2 3 3 2 3 3 4 2 2 2 2 3 3 4 4 4 11 11 12 12 12 12 13 14 14 14
6 6 6 6 8 7 12 14 14 13 7 4 4 2 2 3 4 4 3 1 2 2 3 2 2 3 3 3 8 9 8 9 10 11 12 12 12 11
6 6 6 6 6 7 7 8 7 7 6 5 6 4 4 3 3 1 3 4 3 2 0 2 1 2 1 3 5 6 5 6 7 8 9 10 9 9
5 6 6 6 3 7 7 7 7 6 6 10 9 9 9 5 5 5 3 4 1 2 1 2 2 2 1 1 1 2 2 2 3 4 6 7 7 7
4 6 10 7 8 7 6 5 6 3 3 4 4 5 7 6 8 4 4 4 2 2 4 4 3 3 2 3 3 2 1 4 5 4 4 5 5 2
3 3 3 8 9 10 8 4 3 2 2 3 3 3 3 4 3 4 3 3 2 1 3 4 3 3 2 2 2 3 3 3 3 3 5 6 6 4
3 2 3 8 8 7 5 5 7 4 3 4 4 1 1 1 2 3 4 4 2 3 0 4 3 4 4 2 2 1 3 4 3 2 3 4 6 8
3 4 5 8 8 6 9 8 7 5 4 4 1 1 2 1 1 2 3 3 3 3 1 1 2 3 3 3 4 4 3 4 4 3 3 4 3 3
5 4 5 5 6 3 5 6 3 4 4 2 1 2 2 2 2 2 2 1 2 3 2 1 1 2 2 1 2 3 4 4 4 4 3 2 3 4
2 3 3 3 3 3 3 3 3 4 4 1 2 2 3 2 2 1 1 2 1 2 3 2 3 4 3 4 2 1 2 2 2 2 2 2 4 5
4 3 3 1 1 1 2 1 1 2 2 2 2 1 1 1 2 3 1 1 1 2 2 2 1 2 3 2 4 2 2 3 2 3 2 3 3 3
2 1 1 1 3 3 4 3 2 1 0 1 1 0 1 1 3 2 2 1 1 0 2 1 0 1 2 2 3 4 3 2 1 2 3 3 3 4
1 1 1 2 3 4 4 3 2 0 1 1 1 1 1 0 1 2 3 1 2 2 2 2 3 4 5 5 3 4 8 4 3 2 2 1 4 3
1 3 3 4 4 3 3 3 3 3 2 2 2 2 3 1 2 2 2 3 3 1 2 3 4 3 1 2 1 3 4 7 6 6 3 2 1 3
4 4 3 3 4 4 3 3 3 2 2 3 3 3 3 2 4 4 3 2 2 2 3 4 4 1 1 3 4 3 3 4 5 9 9 9 5 3
4 3 3 4 4 4 4 4 4 4 4 4 3 4 3 3 4 4 4 4 4 3 3 3 2 2 3 4 4 3 3 4 2 3 5 12 13 8
Wind_Direction
108 126 115 178 159 152 152 164 170 200 116 119 104 40 53 56 72 54 38 46 47 43 39 37 35 31 30 32 31 24 11 11 31 37 25 14 31 18
40 61 61 151 168 177 173 166 137 168 117 150 75 88 67 68 71 58 62 60 57 57 54 49 46 42 47 46 41 40 43 50 57 58 56 62 64 59
46 57 49 54 85 116 135 141 169 158 128 98 91 81 63 82 67 65 57 56 56 59 59 57 54 53 51 52 52 52 56 62 64 63 69 67 66 90
34 46 49 56 59 55 78 77 82 80 132 129 121 107 84 81 75 67 61 59 63 64 67 64 62 62 59 55 52 49 47 56 62 62 58 62 70 73
45 47 39 50 52 52 55 68 58 48 79 123 124 107 105 104 88 69 63 58 53 61 60 63 66 64 60 54 49 44 43 42 45 52 55 55 63 70
55 53 47 50 52 49 54 58 57 70 83 102 107 113 100 126 90 103 75 56 55 42 49 57 55 60 60 58 61 61 54 50 52 53 55 59 63 67
50 60 61 64 60 58 66 52 76 77 81 91 88 87 92 149 153 119 101 92 51 54 53 36 32 34 41 49 58 64 67 66 63 61 63 65 65 70
63 48 43 46 48 52 57 60 76 99 85 88 95 111 107 106 115 133 138 162 119 245 63 41 26 43 29 25 70 71 68 71 73 77 78 71 67 73
72 61 55 43 53 53 50 52 45 49 70 100 95 74 102 141 138 151 209 97 109 115 117 65 53 51 12 40 71 76 73 73 78 80 79 80 80 79
78 75 77 65 52 78 75 62 51 46 46 69 81 73 90 100 138 132 117 107 91 183 251 112 56 81 22 0 84 89 86 88 90 92 93 94 89 91
69 64 67 64 63 96 87 79 56 40 44 62 69 55 47 96 117 112 120 139 168 207 120 133 154 143 192 196 219 149 126 105 100 113 107 103 94 94
54 53 50 59 53 134 103 100 80 9 31 29 11 16 40 43 56 43 156 186 160 167 203 118 163 174 203 210 190 178 298 265 234 206 163 148 148 118
87 61 43 51 69 73 90 104 162 178 49 85 94 70 40 31 42 41 46 157 135 65 213 138 164 175 216 168 210 199 188 240 244 256 225 218 215 191
132 112 77 65 59 66 62 48 39 105 93 98 96 58 24 5 351 40 50 47 79 153 198 154 169 169 169 162 193 177 227 232 213 234 217 244 254 250
96 96 68 46 35 28 22 65 53 64 85 78 109 240 250 269 199 2 13 41 19 358 26 132 144 156 169 183 167 180 160 234 210 214 206 217 210 189
49 37 31 38 50 10 21 23 50 83 96 103 46 285 313 25 15 11 354 337 20 313 332 7 69 160 128 107 167 155 220 199 184 220 216 226 231 231
85 44 22 12 356 354 18 33 16 51 73 72 68 44 32 13 339 30 70 7 185 267 298 320 37 77 69 137 49 340 250 279 228 181 126 270 257 230
56 26 331 292 154 228 179 114 36 45 48 53 43 38 40 353 329 332 17 135 217 225 258 261 348 28 12 332 140 172 236 200 206 186 172 202 284 258
81 343 311 166 162 154 135 146 168 245 232 295 132 112 315 320 28 338 345 321 335 334 275 202 346 132 127 245 285 179 184 218 189 233 214 185 210 251
160 216 278 210 206 156 157 147 149 170 197 216 262 290 323 165 338 0 345 320 309 306 315 285 202 198 176 206 212 252 191 159 174 234 267 279 259 313
250 283 226 190 235 185 178 183 182 200 209 237 279 287 283 269 285 278 315 309 281 271 306 278 258 199 160 77 352 296 291 233 179 175 180 167 251 315
299 293 193 175 208 206 194 197 216 223 236 249 268 261 275 267 276 261 259 253 263 251 251 261 293 144 122 200 232 228 265 286 233 217 191 175 169 219
244 240 183 178 192 188 190 207 219 238 237 244 258 271 263 267 255 257 261 257 253 269 250 288 308 183 235 210 218 244 246 276 284 261 264 210 215 229